This demonstration page uses our WeatherBlox Daily Observations layout. Learn more.

Left ArrowRight Arrow

34.74481, -87.66753

Hourly Observations for May 27, 2020

Temp ( °F °C ) Dew Point ( °F °C ) Humidity (%) Winds ( mph kmh ) Pressure ( in mb ) Visibility ( mi km ) Precip ( " mm )
12:53 am 00:53 Cloudy with Light Rain 70 21.1 67 19.4 90 90 ESE 9 15 29.92 1013 10 16 0.05 1.27
1:53 am 01:53 Cloudy with Light Rain 70 21.1 67 19.4 90 90 ESE 7 11 29.91 1013 10 16 0.01 0.25
2:05 am 02:05 Cloudy with Light Rain 69 20.6 67 19.4 93 93 SE 7 11 29.92 1013 10 16 0.00 0.00
2:21 am 02:21 Cloudy with Light Rain 69 20.6 67 19.4 93 93 ESE 7 11 29.91 1013 10 16 0.01 0.25
2:29 am 02:29 Cloudy 69 20.6 67 19.4 93 93 ESE 7 11 29.91 1013 10 16 0.01 0.25
2:48 am 02:48 Cloudy 70 21 66 19 88 88 ESE 5 7 29.91 1013 10 16 0.01 0.25
2:53 am 02:53 Cloudy 69 20.6 67 19.4 93 93 SE 6 9 29.91 1013 10 16 0.01 0.25
3:25 am 03:25 Cloudy with Heavy Rain 69 20.6 67 19.4 93 93 ESE 8 13 29.91 1013 6 10 0.26 6.60
3:41 am 03:41 Cloudy with Light Rain 69 20.6 67 19.4 93 93 SE 7 11 29.91 1013 10 16 0.28 7.11
3:53 am 03:53 Cloudy with Light Rain 69 20.6 67 19.4 93 93 ESE 6 9 29.90 1013 10 16 0.29 7.37
4:48 am 04:48 Cloudy 70 21 66 19 88 88 SE 7 11 29.91 1013 10 16 0.01 0.25
4:53 am 04:53 Cloudy 70 21.1 67 19.4 90 90 SE 7 11 29.91 1013 10 16 0.01 0.25
5:20 am 05:20 Cloudy 70 21.1 67 19.4 90 90 SE 7 11 29.92 1013 10 16 0.00 0.00
5:53 am 05:53 Cloudy 69 20.6 67 19.4 93 93 SE 6 9 29.93 1013 10 16 0.00 0.00
6:27 am 06:27 Cloudy with Light Rain 69 20.6 67 19.4 93 93 SE 6 9 29.94 1014 10 16 0.04 1.02
6:45 am 06:45 Cloudy with Light Rain 69 20.6 67 19.4 93 93 SE 7 11 29.94 1014 10 16 0.04 1.02
6:53 am 06:53 Cloudy 70 21.1 67 19.4 90 90 SE 7 11 29.93 1014 10 16 0.04 1.02
7:53 am 07:53 Cloudy with Light Rain 70 21.1 68 20 93 93 SE 7 11 29.94 1014 10 16 0.03 0.76
8:53 am 08:53 Cloudy 71 21.7 68 20 90 90 SE 7 11 29.94 1014 10 16 0.03 0.76
9:53 am 09:53 Cloudy with Light Rain 71 21.7 68 20 90 90 SSE 7 11 29.94 1014 10 16 0.02 0.51
10:14 am 10:14 Cloudy 72 22.2 69 20.6 91 91 S 6 9 29.94 1014 10 16 0.00 0.00
10:53 am 10:53 Cloudy with Heavy Rain 68 20 64 17.8 87 87 NNW 7 11 29.94 1014 6 10 0.30 7.62
11:06 am 11:06 Cloudy with Rain 70 21.1 65 18.3 84 84 Calm 29.95 1014 10 16 0.01 0.25
11:53 am 11:53 Mostly Cloudy 72 22.2 68 20 87 87 ESE 7 11 29.94 1014 10 16 0.03 0.76
12:50 pm 12:50 Mostly Cloudy 77 25 70 21 79 79 SSE 9 15 29.94 1014 10 16 0.00 0.00
12:53 pm 12:53 Partly Cloudy 76 24.4 68 20 77 77 SE 8 13 29.94 1014 10 16 0.00 0.00
1:36 pm 13:36 Mostly Cloudy 78 25.6 68 20 71 71 ESE 7 11 29.92 1013 10 16 0.00 0.00
1:43 pm 13:43 Partly Cloudy 78 25.6 67 19.4 69 69 ESE 5 7 29.92 1013 10 16 0.00 0.00
1:53 pm 13:53 Mostly Cloudy 79 26.1 68 20 69 69 SE 6 9 29.92 1013 10 16 0.00 0.00
2:00 pm 14:00 Mostly Cloudy 78 25.6 67 19.4 69 69 ESE 5 7 29.91 1013 10 16 0.00 0.00
2:53 pm 14:53 Partly Cloudy 80 26.7 69 20.6 69 69 ESE 7 11 29.89 1012 10 16 0.00 0.00
3:53 pm 15:53 Mostly Cloudy with Light Rain 77 25 69 20.6 77 77 SE 6 9 29.88 1012 10 16 0.00 0.00
4:53 pm 16:53 Cloudy with Light Rain 75 23.9 71 21.7 88 88 SSE 9 15 29.89 1012 10 16 0.01 0.25
5:03 pm 17:03 Cloudy with Rain 75 23.9 71 21.7 88 88 SSE 8 13 29.89 1012 10 16 0.02 0.51
5:23 pm 17:23 Mostly Cloudy with Light Rain 74 23.3 70 21.1 88 88 SE 8 13 29.88 1012 10 16 0.04 1.02
5:53 pm 17:53 Cloudy with Light Rain 73 22.8 69 20.6 87 87 ESE 9 15 29.89 1012 10 16 0.06 1.52
6:53 pm 18:53 Mostly Cloudy with Light Rain 71 21.7 68 20 90 90 SSW 8 13 29.89 1012 10 16 0.03 0.76
7:02 pm 19:02 Mostly Cloudy 72 22.2 68 20 87 87 SSE 7 11 29.90 1013 10 16 0.00 0.00
7:53 pm 19:53 Sunny 70 21.1 67 19.4 90 90 SE 7 11 29.91 1013 10 16 0.00 0.00
8:20 pm 20:20 Partly Cloudy 70 21.1 66 18.9 87 87 SW 6 9 29.91 1013 10 16 0.00 0.00
8:53 pm 20:53 Clear 68 20 65 18.3 90 90 SSE 6 9 29.91 1013 10 16 0.00 0.00
9:53 pm 21:53 Clear 67 19.4 64 17.8 91 91 S 5 7 29.93 1014 10 16 0.00 0.00
10:53 pm 22:53 Partly Cloudy 66 18.9 63 17.2 90 90 ESE 3 6 29.93 1013 10 16 0.00 0.00
11:53 pm 23:53 Partly Cloudy 66 18.9 63 17.2 90 90 Calm 29.93 1014 10 16 0.00 0.00

Powered by AerisWeather